GEFSCGP_con_probscp_180.txt.gz
Probability
0 0 0 0 0 0 0 0 0 0 0 1 5 13 21 27 34 39 39 39 38 36 37 39 39 38 37 37 38 40 37 32 29 26 22 18 12 11 11 8 5 5 6 7
0 0 0 0 0 0 0 0 0 0 0 1 4 10 18 25 32 40 44 45 43 42 43 44 44 43 40 39 41 41 36 31 28 27 24 17 12 12 12 12 9 8 9 9
0 0 0 0 0 0 0 0 0 0 0 0 2 6 11 18 28 38 47 50 49 48 48 50 52 51 46 43 42 41 34 28 27 28 25 19 13 13 13 14 15 15 14 13
0 0 0 0 0 0 0 0 0 0 0 0 1 2 5 11 21 30 41 49 51 51 53 57 59 58 53 48 44 40 33 28 27 27 25 20 15 12 10 11 16 19 18 17
0 0 0 0 0 0 0 0 0 0 0 0 0 1 2 6 13 22 34 47 53 55 59 63 64 62 57 52 45 40 35 32 30 28 25 22 16 11 7 8 12 16 18 19
0 0 0 0 0 0 0 0 0 0 0 0 0 0 1 3 9 17 30 46 56 61 65 66 67 64 59 54 47 42 39 36 34 30 26 24 18 11 8 8 10 12 16 18
0 0 0 0 0 0 0 0 0 0 0 0 0 0 0 2 8 18 30 43 55 62 63 64 64 63 59 55 51 47 43 40 38 33 28 25 20 13 9 9 10 11 14 17
0 0 0 0 0 0 0 0 0 0 0 0 0 1 1 3 9 19 28 37 47 53 56 58 58 57 56 53 51 48 45 42 38 34 28 23 20 15 10 8 9 9 12 14
0 0 0 0 0 0 0 0 0 0 0 0 1 2 2 5 11 18 23 29 36 43 48 51 51 50 50 49 48 46 41 38 36 33 27 21 20 17 12 8 6 7 9 10
0 0 0 0 0 0 0 0 0 0 0 0 1 2 3 6 11 16 19 24 30 36 41 44 44 43 44 45 45 42 36 33 33 32 26 20 17 15 12 9 7 8 8 7
0 0 0 0 0 0 0 0 0 0 0 0 0 2 3 6 11 16 21 24 27 32 36 38 38 40 42 44 43 40 34 31 30 29 25 21 17 14 12 10 9 9 7 6
0 0 0 0 0 0 0 0 0 0 0 0 1 2 4 7 12 19 23 23 24 30 35 37 37 38 41 42 41 38 33 30 27 26 25 22 19 16 13 10 9 8 7 6
0 0 0 0 0 0 0 0 0 0 0 0 2 3 5 9 13 18 21 20 22 30 36 37 37 37 39 39 37 34 30 27 26 26 25 23 20 16 12 9 7 6 6 6
0 0 0 0 0 0 0 0 0 0 0 0 2 3 5 8 11 15 18 20 25 31 34 35 34 34 34 33 31 28 25 24 25 26 26 23 18 15 11 8 5 4 4 4
0 0 0 0 0 0 0 0 0 0 0 1 4 5 6 7 9 14 18 22 28 32 33 33 32 30 28 26 25 23 21 21 23 25 24 19 14 11 9 6 4 3 3 3
0 0 0 0 0 0 0 0 0 0 0 3 7 10 10 10 12 16 21 25 27 30 31 31 28 25 23 22 22 21 20 20 21 20 18 14 10 8 7 5 3 2 2 2
0 0 0 0 0 0 0 0 0 1 3 7 12 15 17 17 17 19 21 23 24 27 29 28 25 24 22 20 19 19 19 19 18 16 14 12 9 7 5 3 1 1 1 1
0 0 0 0 0 0 0 0 2 4 8 13 17 21 25 27 25 21 20 20 21 24 25 25 24 23 22 19 18 17 17 16 14 13 12 11 11 9 6 2 0 0 0 1
0 0 0 0 0 0 0 2 6 10 14 18 23 28 31 33 31 25 20 19 20 22 23 23 23 23 21 18 17 16 14 13 12 11 10 9 10 10 8 4 1 1 1 2
0 0 0 0 0 0 3 8 12 15 19 21 25 30 31 31 30 26 23 22 22 23 23 23 22 21 18 15 14 14 13 12 11 10 8 7 8 8 7 5 4 3 3 4
0 0 0 0 0 2 7 13 15 15 18 22 25 27 27 25 25 25 24 24 24 24 24 23 20 18 15 12 11 10 10 10 9 8 7 6 6 6 6 6 6 5 5 5
1 0 0 0 1 3 7 11 12 12 16 20 23 24 22 21 21 22 21 20 21 21 21 19 16 13 10 9 8 7 6 6 6 6 6 6 6 5 4 5 6 5 4 4
2 1 1 1 2 2 4 5 7 9 13 15 16 17 17 17 18 18 16 15 15 15 14 12 11 8 6 4 4 3 3 4 5 6 5 4 4 4 4 4 4 4 3 3
2 2 2 2 3 3 3 3 5 7 9 10 11 11 13 16 17 17 15 13 12 10 8 6 6 4 2 1 1 1 1 3 4 4 4 3 3 3 3 3 2 3 3 3
0 1 1 1 2 3 4 3 4 6 7 8 10 11 12 14 17 16 13 11 9 6 4 3 3 2 1 0 0 0 0 1 2 3 3 3 3 3 3 1 1 1 2 2
0 0 0 0 1 2 2 2 3 5 6 7 9 11 11 13 15 13 10 8 6 3 2 2 1 1 0 0 0 0 0 0 1 2 3 3 3 3 2 1 0 0 1 1

GEFSCGP_con_probscp_186.txt.gz
Probability
0 0 0 0 0 0 0 0 0 0 1 2 3 3 4 7 9 7 7 9 9 8 7 11 14 14 12 11 8 6 4 2 1 1 1 1 0 0 0 0 0 0 0 0
0 0 0 0 0 0 0 0 0 0 0 1 2 3 4 6 7 6 6 7 8 7 7 11 15 16 16 15 11 9 6 4 3 2 2 2 1 1 1 0 0 0 0 0
0 0 0 0 0 0 0 0 0 0 0 1 2 3 3 3 4 5 4 5 6 6 7 12 16 19 21 20 17 13 11 8 7 5 4 4 4 4 3 2 2 2 0 0
0 0 0 0 0 0 0 0 0 0 0 1 1 1 1 1 3 4 3 3 4 6 9 14 19 22 25 24 20 16 14 13 13 11 9 9 9 7 5 5 5 4 2 0
0 0 0 0 0 0 0 0 0 0 0 0 0 0 0 1 2 3 3 3 4 6 10 15 21 25 26 24 20 17 15 15 16 16 15 14 11 7 5 5 6 6 3 2
0 0 0 0 0 0 0 0 0 0 0 0 0 0 0 0 1 3 5 6 7 10 13 15 20 25 25 24 22 19 16 15 16 17 17 14 10 6 4 5 7 7 6 4
0 0 0 0 0 0 0 0 0 0 0 0 0 0 0 0 0 2 6 9 13 17 19 18 22 25 26 28 28 25 21 19 19 18 16 14 10 5 4 6 7 8 7 5
0 0 0 0 0 0 0 0 0 0 0 0 0 0 0 1 2 4 6 11 17 22 24 25 28 30 31 31 31 30 28 27 25 21 17 14 9 6 5 6 6 7 7 6
0 0 0 0 0 0 0 0 0 0 1 1 0 0 0 2 5 7 8 13 18 22 27 32 35 36 35 34 32 31 31 31 28 24 19 13 8 6 5 4 4 6 6 6
0 0 0 0 0 0 0 0 0 0 1 1 0 0 0 2 5 8 10 13 16 20 26 34 37 37 36 35 32 30 30 30 28 25 20 14 10 7 6 4 4 4 5 6
0 0 0 0 0 0 0 0 0 0 1 1 0 0 0 1 4 8 10 12 14 15 20 28 32 33 34 33 32 31 29 27 26 24 21 17 14 11 8 6 5 4 5 5
0 0 0 0 0 0 0 0 0 0 0 0 0 0 0 2 5 8 9 11 11 12 15 22 27 30 32 32 32 32 30 26 25 23 21 18 16 14 11 9 7 5 5 4
0 0 0 0 0 0 0 0 0 0 0 0 0 0 1 3 7 9 10 11 11 12 16 20 24 28 32 33 32 31 29 26 23 22 19 17 16 14 12 10 8 5 3 3
0 0 0 0 0 0 0 0 0 0 0 0 0 0 1 4 8 10 11 13 13 15 19 21 24 27 30 30 28 26 25 23 21 20 17 15 13 11 8 7 5 3 1 1
0 0 0 0 0 0 0 0 0 0 0 0 0 0 1 4 8 10 11 13 15 16 20 22 24 26 25 23 22 21 20 19 19 18 14 12 10 8 5 4 2 1 0 0
0 0 0 0 0 0 0 0 0 0 0 0 0 0 1 3 7 10 11 14 15 15 17 19 20 22 20 17 18 19 19 18 18 16 12 11 10 7 5 3 1 0 0 0
0 0 0 0 0 0 0 0 0 0 0 0 0 0 2 5 7 9 11 13 13 12 13 14 15 18 17 16 17 17 18 18 18 15 13 12 11 8 4 2 1 0 0 0
0 0 0 0 0 0 0 0 0 0 0 1 0 1 4 8 10 9 9 9 9 10 10 11 13 15 16 16 16 16 16 16 15 14 14 14 13 9 4 1 0 0 0 0
0 0 0 0 0 0 0 1 1 1 0 0 0 1 5 10 11 8 6 5 7 9 10 11 13 14 14 14 15 14 12 12 11 11 12 14 12 8 4 1 0 0 0 0
0 0 0 0 0 0 0 1 2 1 0 0 1 3 7 10 9 6 6 7 8 9 10 11 12 12 11 11 12 11 8 7 6 7 8 9 8 5 3 1 0 0 0 0
0 0 0 0 0 0 0 1 1 1 0 0 3 6 7 7 7 7 8 8 9 9 9 10 10 10 10 10 9 7 5 4 4 4 4 4 2 1 1 1 0 0 0 0
0 0 0 0 0 0 0 1 2 1 0 1 4 6 6 6 8 9 10 9 10 10 10 9 9 9 9 9 8 5 4 3 3 2 2 1 1 1 1 1 0 0 0 0
0 0 0 0 0 0 1 3 3 2 0 1 3 4 5 6 8 10 12 12 12 12 11 10 10 9 7 7 6 4 3 2 2 2 2 2 2 2 2 1 0 0 0 0
0 0 0 0 0 1 2 3 2 1 1 1 3 4 5 6 7 9 12 14 14 13 11 9 9 8 5 4 3 2 1 1 1 1 1 1 2 2 2 1 0 0 0 0
0 0 0 0 0 1 2 1 0 0 1 2 4 5 5 5 5 8 11 12 12 11 8 6 5 4 2 1 1 1 0 0 0 0 0 0 1 1 1 0 0 0 0 0
0 0 0 0 0 1 1 0 0 0 1 2 4 6 6 5 5 8 11 10 9 8 6 3 2 1 0 0 0 0 0 0 0 0 0 0 0 0 0 0 0 0 0 0

GEFSCGP_con_probscp_192.txt.gz
Probability
0 0 0 0 0 0 0 0 0 1 2 2 2 2 1 0 2 5 7 9 12 12 11 10 12 15 17 18 19 18 17 16 17 15 11 10 9 9 8 8 9 11 13 13
0 0 0 0 0 0 0 0 0 1 2 3 3 3 2 1 1 5 8 11 13 14 15 16 18 18 19 20 20 18 16 16 17 16 12 10 10 11 9 8 9 12 13 14
0 0 0 0 0 0 0 0 0 1 2 3 3 3 2 1 2 5 9 12 14 17 21 24 24 23 23 24 23 19 18 18 19 19 15 13 14 14 12 11 12 15 16 15
0 0 0 0 0 0 0 0 0 0 1 1 2 1 1 2 2 5 9 12 15 18 22 26 28 28 28 27 24 22 21 22 22 23 21 20 19 17 15 15 16 17 17 16
0 0 0 0 0 0 0 0 0 0 0 0 0 0 0 1 2 5 8 11 15 18 21 26 29 29 29 26 25 25 27 26 26 26 26 25 22 19 18 18 17 17 15 15
0 0 0 0 0 0 0 0 0 0 0 0 0 0 0 0 2 5 7 10 14 16 20 25 29 28 27 26 27 30 33 34 31 29 28 27 25 24 22 20 18 16 14 14
0 0 0 0 0 0 0 0 0 0 0 0 0 0 0 0 2 5 8 10 13 15 18 23 27 28 29 30 32 36 39 40 37 32 29 27 27 27 25 22 19 18 17 15
0 0 0 0 0 0 0 0 0 0 0 0 0 0 0 0 2 5 9 11 14 15 15 19 24 30 32 32 33 37 40 41 40 36 33 29 27 27 25 21 19 19 17 14
0 0 0 0 0 0 0 0 0 0 0 0 0 0 0 0 2 6 9 12 16 16 15 17 24 30 33 30 29 32 36 40 41 39 35 30 27 25 22 20 18 18 16 14
0 0 0 0 0 0 0 0 0 0 0 0 0 0 0 1 4 7 9 13 17 17 17 20 26 31 32 29 29 31 36 41 41 38 32 25 22 20 18 18 18 19 20 21
0 0 0 0 0 0 0 0 0 0 0 0 0 0 1 2 5 7 10 14 16 17 18 22 29 34 34 33 35 39 41 41 39 35 28 21 18 19 18 18 18 19 23 26
0 0 0 0 0 0 0 0 0 0 0 0 0 0 1 3 6 9 12 15 19 22 23 26 32 36 39 40 43 47 46 41 37 34 30 25 23 24 25 22 20 19 21 24
0 0 0 0 0 0 0 0 0 0 0 0 0 1 3 5 9 14 17 20 26 31 31 32 35 39 43 45 47 49 47 44 40 37 33 31 30 31 31 28 25 22 20 20
0 0 0 0 0 0 0 0 0 0 0 0 0 1 4 7 12 18 22 26 31 33 34 34 36 40 43 44 45 47 46 45 43 39 37 35 33 33 33 31 29 24 20 19
0 0 0 0 0 0 0 0 0 0 0 0 0 1 4 9 15 20 25 30 32 32 32 32 35 38 40 40 42 44 44 42 41 39 37 34 32 30 29 29 26 22 19 18
0 0 0 0 0 0 0 0 0 0 0 0 0 2 6 13 19 23 28 32 33 31 29 29 33 36 38 39 41 42 41 38 36 35 32 29 27 24 22 21 20 19 17 16
0 0 0 0 0 0 0 0 0 0 0 0 0 3 9 15 22 25 27 31 32 30 27 28 32 34 36 37 38 37 35 32 30 29 25 22 20 20 19 16 16 17 16 14
0 0 0 0 0 0 1 1 1 0 0 1 1 4 10 15 20 22 24 29 31 28 26 28 30 29 30 33 32 30 28 26 24 22 21 19 18 19 20 20 18 17 15 13
0 0 0 0 0 0 2 2 1 1 1 2 4 6 9 12 15 17 20 26 29 27 25 27 26 25 26 27 26 23 21 20 20 19 20 20 19 20 22 22 21 18 17 16
0 0 0 0 0 1 2 3 3 2 3 5 8 10 10 11 14 19 21 26 27 24 22 23 23 22 24 25 23 20 19 19 19 19 20 21 21 21 22 21 19 19 18 18
0 0 0 0 0 1 4 4 4 5 7 8 11 14 15 17 21 25 27 29 27 22 20 21 21 21 23 24 23 22 21 21 21 20 20 20 20 20 19 18 17 18 17 16
2 2 2 2 2 5 8 9 10 11 12 11 12 15 19 24 28 30 30 30 27 22 18 20 21 22 23 24 23 23 22 23 22 20 17 17 17 16 15 15 15 15 15 14
6 7 7 8 8 10 14 16 16 16 14 13 13 14 17 22 25 26 25 24 22 19 17 19 21 22 22 23 22 21 19 20 20 17 14 14 13 13 13 12 11 10 11 11
9 11 13 13 12 13 17 19 18 16 14 14 14 14 13 15 16 17 18 17 17 16 17 19 20 21 21 21 20 17 16 16 14 13 11 11 11 10 10 9 7 6 6 7
10 12 13 13 14 15 16 16 16 15 12 12 13 14 14 13 13 14 15 16 16 16 17 18 19 19 18 17 15 13 12 11 10 9 8 8 7 6 5 5 5 4 3 3
9 12 13 13 15 17 15 14 15 14 11 10 11 14 16 14 14 15 16 16 16 16 16 17 17 16 15 14 11 8 8 8 7 7 7 6 4 2 2 2 2 2 1 1

GEFSCGP_con_probscp_198.txt.gz
Probability
0 0 0 0 0 0 0 0 0 0 0 0 1 5 9 9 8 10 12 17 24 30 34 39 42 44 47 50 49 45 41 39 33 28 24 22 20 14 9 13 24 29 22 15
0 0 0 0 0 0 0 0 0 0 0 0 1 5 8 8 7 9 12 18 25 32 39 46 50 51 53 55 52 48 45 42 35 29 26 25 24 19 14 19 29 30 24 19
0 0 0 0 0 0 0 0 0 0 0 0 1 4 7 7 6 8 12 18 26 34 44 54 57 57 58 60 57 53 52 50 42 35 30 30 31 28 25 29 35 32 27 25
0 0 0 0 0 0 0 0 0 0 0 0 1 2 6 8 8 8 11 17 25 34 46 57 61 57 56 57 57 58 59 57 52 44 38 37 38 36 33 35 38 35 30 28
0 0 0 0 0 0 0 0 0 0 0 0 1 2 4 8 8 8 10 14 22 31 42 55 61 57 54 53 55 60 63 63 60 52 44 41 41 39 36 35 37 37 31 27
0 0 0 0 0 0 0 0 0 0 0 0 1 1 2 4 6 7 10 13 19 27 37 50 59 60 57 55 56 61 67 68 65 58 49 45 45 41 36 34 34 33 31 28
0 0 0 0 0 0 0 0 0 0 0 0 0 0 1 3 5 8 13 15 18 24 34 47 59 64 64 62 62 67 72 74 70 65 58 54 51 45 38 34 31 30 29 30
0 0 0 0 0 0 0 0 0 0 0 0 0 1 2 5 7 11 14 16 17 22 31 43 57 66 66 65 67 71 76 76 74 70 66 62 57 49 42 36 31 27 26 26
0 0 0 0 0 0 0 0 0 0 0 0 0 1 3 7 10 11 13 15 16 20 28 38 51 62 67 67 69 71 74 75 73 69 67 64 58 51 45 39 31 26 23 23
0 0 0 0 0 0 0 0 0 0 0 0 0 1 5 9 10 9 12 15 17 22 29 38 49 60 66 68 68 70 71 72 70 67 65 61 56 49 44 39 33 29 27 26
0 0 0 0 0 0 0 0 0 0 0 0 1 2 5 9 9 8 11 16 21 27 33 38 50 61 65 66 69 70 70 71 70 67 62 56 51 47 42 38 35 35 35 35
0 0 0 0 0 0 0 0 0 0 0 0 1 2 4 6 7 11 17 23 29 35 38 41 50 60 64 65 68 69 69 69 69 65 58 52 48 45 41 38 37 39 41 42
0 0 0 0 0 0 0 0 0 0 0 0 0 1 2 4 8 17 27 33 39 43 46 50 56 60 63 64 64 64 64 64 64 60 54 49 46 44 42 39 38 38 41 43
0 0 0 0 0 0 0 0 0 0 0 0 0 1 3 6 13 25 34 39 43 48 52 58 64 66 63 61 59 59 58 59 58 55 50 49 47 45 42 40 37 37 39 41
0 0 0 0 0 0 0 0 0 0 0 0 1 4 9 14 21 30 38 42 47 51 55 61 67 68 62 55 54 55 55 55 53 51 48 47 47 44 41 37 35 34 35 37
1 0 0 0 0 0 0 0 0 0 0 1 5 11 18 24 30 38 44 49 52 55 60 65 66 64 56 50 50 52 52 49 47 46 45 44 43 40 35 31 29 29 30 29
1 1 2 2 1 0 1 1 1 2 2 4 9 17 23 29 39 46 51 54 56 59 65 68 64 59 53 49 47 46 44 42 42 42 41 40 37 32 28 24 23 24 23 22
1 2 3 3 3 2 1 2 2 4 6 9 13 20 25 32 43 51 54 58 60 61 64 63 58 54 51 47 42 39 38 38 40 40 39 36 32 28 25 23 22 21 20 19
1 2 3 3 4 3 3 2 3 5 9 14 19 25 28 32 41 51 58 61 60 59 59 56 52 51 50 45 39 37 37 38 38 36 35 33 30 27 25 24 22 20 19 19
0 1 1 2 4 7 8 6 4 7 14 20 27 32 32 33 43 55 63 63 60 58 56 53 51 51 50 46 41 38 36 35 33 30 29 29 28 27 25 24 24 21 19 19
1 1 1 2 3 10 15 12 12 20 31 36 38 39 40 43 52 59 62 60 56 55 53 50 49 49 47 44 42 36 31 28 28 27 25 25 25 24 24 25 25 23 21 20
4 4 5 5 8 17 26 28 34 46 54 52 47 44 48 53 56 57 56 53 50 48 46 44 44 45 43 40 37 32 26 24 25 26 25 24 22 21 22 23 23 22 20 18
8 9 11 14 19 27 36 44 51 58 59 54 48 45 47 51 54 53 49 47 44 41 41 40 41 41 41 37 33 30 26 23 22 23 22 21 19 17 17 17 16 16 15 14
9 12 18 25 29 33 39 45 49 48 45 42 40 38 39 44 49 49 45 41 39 39 39 38 37 38 37 34 31 30 27 22 19 17 15 14 13 12 11 10 9 9 8 8
13 16 24 30 31 32 34 38 39 36 34 34 32 30 31 36 41 40 37 34 34 36 35 33 31 31 32 30 29 27 25 20 16 12 10 10 9 7 6 5 4 4 4 3
19 21 28 33 31 30 31 33 33 32 32 32 30 27 26 29 32 32 30 29 31 33 32 28 26 27 29 29 27 26 23 19 14 11 9 9 8 5 4 4 3 2 1 0